| time (UTC) | temp C | wind direction | speed KPH | gust KPH | rain 1hr cm | rain 24hr cm | rain mn cm | humidity % | barometer mb |
| 20260906225506 | 36 | 141 | 4.8 | 12.9 | 0.00 | 0.00 | 0.00 | 42 | 1011.7 |
| 20260906225005 | 36 | 194 | 9.7 | 19.3 | 0.00 | 0.00 | 0.00 | 42 | 1011.7 |
| 20260906224505 | 36 | 180 | 8.0 | 20.9 | 0.00 | 0.00 | 0.00 | 42 | 1011.7 |
| 20260906224006 | 36 | 135 | 9.7 | 20.9 | 0.00 | 0.00 | 0.00 | 42 | 1011.8 |
| 20260906223506 | 36 | 116 | 14.5 | 20.9 | 0.00 | 0.00 | 0.00 | 41 | 1011.7 |
| 20260906222505 | 36 | 161 | 3.2 | 16.1 | 0.00 | 0.00 | 0.00 | 41 | 1011.9 |
| 20260906222006 | 36 | 105 | 6.4 | 19.3 | 0.00 | 0.00 | 0.00 | 41 | 1011.9 |
| 20260906221505 | 36 | 144 | 6.4 | 12.9 | 0.00 | 0.00 | 0.00 | 40 | 1011.8 |
| 20260906221005 | 36 | 180 | 11.3 | 20.9 | 0.00 | 0.00 | 0.00 | 41 | 1011.7 |
| 20260906220505 | 36 | 94 | 3.2 | 14.5 | 0.00 | 0.00 | 0.00 | 41 | 1011.7 |
| 20260906220005 | 36 | 146 | 12.9 | 20.9 | 0.00 | 0.00 | 0.00 | 41 | 1011.8 |
| 20260906215505 | 36 | 132 | 11.3 | 20.9 | 0.00 | 0.00 | 0.00 | 41 | 1011.8 |
| 20260906214005 | 36 | 134 | 9.7 | 20.9 | 0.00 | 0.00 | 0.00 | 40 | 1012.0 |
| 20260906213505 | 37 | 124 | 6.4 | 19.3 | 0.00 | 0.00 | 0.00 | 39 | 1012.0 |
| 20260906213005 | 37 | 130 | 9.7 | 19.3 | 0.00 | 0.00 | 0.00 | 41 | 1012.1 |
| 20260906212505 | 36 | 114 | 9.7 | 19.3 | 0.00 | 0.00 | 0.00 | 40 | 1012.2 |
| 20260906212005 | 37 | 127 | 16.1 | 24.1 | 0.00 | 0.00 | 0.00 | 40 | 1012.2 |
| 20260906211505 | 37 | 96 | 9.7 | 20.9 | 0.00 | 0.00 | 0.00 | 39 | 1012.4 |
| 20260906211005 | 37 | 145 | 12.9 | 25.7 | 0.00 | 0.00 | 0.00 | 39 | 1012.4 |
| 20260906210505 | 37 | 140 | 14.5 | 25.7 | 0.00 | 0.00 | 0.00 | 39 | 1012.4 |
| 20260906205505 | 36 | 144 | 8.0 | 16.1 | 0.00 | 0.00 | 0.00 | 40 | 1012.6 |
| 20260906205005 | 37 | 146 | 14.5 | 20.9 | 0.00 | 0.00 | 0.00 | 39 | 1012.7 |
| 20260906204505 | 37 | 99 | 8.0 | 20.9 | 0.00 | 0.00 | 0.00 | 40 | 1012.9 |
| 20260906204005 | 37 | 105 | 14.5 | 20.9 | 0.00 | 0.00 | 0.00 | 41 | 1012.8 |
| 20260906203506 | 36 | 130 | 8.0 | 16.1 | 0.00 | 0.00 | 0.00 | 41 | 1012.8 |
| 20260906200005 | 36 | 130 | 9.7 | 22.5 | 0.00 | 0.00 | 0.00 | 43 | 1013.3 |
| 20260906195505 | 36 | 116 | 9.7 | 20.9 | 0.00 | 0.00 | 0.00 | 42 | 1013.4 |
| 20260906194504 | 36 | 134 | 9.7 | 20.9 | 0.00 | 0.00 | 0.00 | 46 | 1013.4 |
| 20260906194005 | 35 | 99 | 6.4 | 11.3 | 0.00 | 0.00 | 0.00 | 45 | 1013.5 |
| 20260906193005 | 36 | 159 | 8.0 | 16.1 | 0.00 | 0.00 | 0.00 | 44 | 1013.6 |
| 20260906192504 | 36 | 130 | 12.9 | 20.9 | 0.00 | 0.00 | 0.00 | 45 | 1013.6 |
| 20260906191505 | 37 | 159 | 8.0 | 16.1 | 0.00 | 0.00 | 0.00 | 46 | 1013.8 |
| 20260906190005 | 36 | 159 | 16.1 | 24.1 | 0.00 | 0.00 | 0.00 | 45 | 1014.0 |
| 20260906185004 | 35 | 120 | 9.7 | 20.9 | 0.00 | 0.00 | 0.00 | 47 | 1014.0 |
| 20260906184505 | 35 | 159 | 3.2 | 24.1 | 0.00 | 0.00 | 0.00 | 46 | 1014.1 |
| 20260906184005 | 36 | 112 | 8.0 | 20.9 | 0.00 | 0.00 | 0.00 | 46 | 1014.3 |
| 20260906183505 | 36 | 176 | 17.7 | 29.0 | 0.00 | 0.00 | 0.00 | 45 | 1014.2 |
| 20260906183004 | 36 | 168 | 11.3 | 27.4 | 0.00 | 0.00 | 0.00 | 46 | 1014.4 |
| 20260906182505 | 36 | 172 | 11.3 | 22.5 | 0.00 | 0.00 | 0.00 | 46 | 1014.4 |
| 20260906182005 | 35 | 112 | 6.4 | 20.9 | 0.00 | 0.00 | 0.00 | 47 | 1014.6 |
| 20260906181505 | 36 | 140 | 9.7 | 20.9 | 0.00 | 0.00 | 0.00 | 47 | 1014.5 |
| 20260906181004 | 35 | 158 | 12.9 | 20.9 | 0.00 | 0.00 | 0.00 | 46 | 1014.7 |
| 20260906180504 | 35 | 159 | 14.5 | 22.5 | 0.00 | 0.00 | 0.00 | 47 | 1014.6 |
| 20260906180004 | 35 | 159 | 9.7 | 19.3 | 0.00 | 0.00 | 0.00 | 46 | 1014.8 |
| 20260906175004 | 35 | 156 | 14.5 | 24.1 | 0.00 | 0.00 | 0.00 | 47 | 1015.0 |
| 20260906174504 | 35 | 116 | 9.7 | 22.5 | 0.00 | 0.00 | 0.00 | 47 | 1015.0 |
| 20260906174005 | 35 | 159 | 11.3 | 19.3 | 0.00 | 0.00 | 0.00 | 48 | 1015.1 |
| 20260906173505 | 35 | 172 | 4.8 | 14.5 | 0.00 | 0.00 | 0.00 | 49 | 1015.2 |
| 20260906173005 | 35 | 131 | 8.0 | 14.5 | 0.00 | 0.00 | 0.00 | 49 | 1015.3 |
| 20260906172504 | 35 | 125 | 4.8 | 12.9 | 0.00 | 0.00 | 0.00 | 49 | 1015.3 |
| 20260906172005 | 35 | 184 | 8.0 | 14.5 | 0.00 | 0.00 | 0.00 | 50 | 1015.4 |
| 20260906170504 | 35 | 169 | 9.7 | 19.3 | 0.00 | 0.00 | 0.00 | 50 | 1015.4 |
| 20260906170004 | 35 | 159 | 8.0 | 20.9 | 0.00 | 0.00 | 0.00 | 51 | 1015.4 |
| 20260906165505 | 34 | 166 | 14.5 | 20.9 | 0.00 | 0.00 | 0.00 | 52 | 1015.4 |
| 20260906165004 | 34 | 168 | 9.7 | 22.5 | 0.00 | 0.00 | 0.00 | 51 | 1015.4 |
| 20260906164505 | 34 | 152 | 9.7 | 19.3 | 0.00 | 0.00 | 0.00 | 52 | 1015.7 |
| 20260906164004 | 34 | 165 | 11.3 | 20.9 | 0.00 | 0.00 | 0.00 | 52 | 1015.6 |
| 20260906163505 | 33 | 140 | 6.4 | 14.5 | 0.00 | 0.00 | 0.00 | 53 | 1015.7 |
| 20260906163004 | 33 | 107 | 6.4 | 14.5 | 0.00 | 0.00 | 0.00 | 54 | 1015.7 |
| 20260906162505 | 33 | 109 | 4.8 | 12.9 | 0.00 | 0.00 | 0.00 | 54 | 1015.6 |
| 20260906161504 | 33 | 150 | 8.0 | 19.3 | 0.00 | 0.00 | 0.00 | 55 | 1015.4 |
| 20260906161004 | 33 | 156 | 4.8 | 20.9 | 0.00 | 0.00 | 0.00 | 56 | 1015.4 |
| 20260906160504 | 33 | 167 | 8.0 | 16.1 | 0.00 | 0.00 | 0.00 | 57 | 1015.5 |
| 20260906160004 | 33 | 140 | 4.8 | 16.1 | 0.00 | 0.00 | 0.00 | 57 | 1015.4 |
| 20260906155504 | 33 | 113 | 8.0 | 19.3 | 0.00 | 0.00 | 0.00 | 56 | 1015.4 |
| 20260906155004 | 32 | 121 | 8.0 | 14.5 | 0.00 | 0.00 | 0.00 | 60 | 1015.4 |
| 20260906153504 | 32 | 123 | 6.4 | 11.3 | 0.00 | 0.00 | 0.00 | 63 | 1015.4 |
| 20260906153004 | 32 | 104 | 4.8 | 12.9 | 0.00 | 0.00 | 0.00 | 62 | 1015.3 |
| 20260906152505 | 32 | 151 | 3.2 | 12.9 | 0.00 | 0.00 | 0.00 | 64 | 1015.2 |
| 20260906152004 | 31 | 112 | 8.0 | 12.9 | 0.00 | 0.00 | 0.00 | 64 | 1015.2 |
| 20260906151504 | 31 | 95 | 4.8 | 11.3 | 0.00 | 0.00 | 0.00 | 65 | 1015.2 |
| 20260906151005 | 31 | 120 | 4.8 | 12.9 | 0.00 | 0.00 | 0.00 | 67 | 1015.2 |
| 20260906150504 | 31 | 90 | 4.8 | 11.3 | 0.00 | 0.00 | 0.00 | 67 | 1015.2 |
| 20260906150004 | 31 | 110 | 3.2 | 12.9 | 0.00 | 0.00 | 0.00 | 68 | 1015.2 |
| 20260906145504 | 31 | 129 | 4.8 | 9.7 | 0.00 | 0.00 | 0.00 | 69 | 1015.2 |
| 20260906145005 | 30 | 63 | 8.0 | 12.9 | 0.00 | 0.00 | 0.00 | 69 | 1015.1 |
| 20260906144505 | 30 | 98 | 4.8 | 11.3 | 0.00 | 0.00 | 0.00 | 69 | 1015.1 |
| 20260906144005 | 30 | 101 | 3.2 | 11.3 | 0.00 | 0.00 | 0.00 | 70 | 1015.1 |
| 20260906143004 | 30 | 128 | 3.2 | 8.0 | 0.00 | 0.00 | 0.00 | 70 | 1015.3 |
| 20260906142504 | 30 | 136 | 4.8 | 8.0 | 0.00 | 0.00 | 0.00 | 72 | 1015.3 |
| 20260906142004 | 29 | 117 | 4.8 | 8.0 | 0.00 | 0.00 | 0.00 | 72 | 1015.2 |
| 20260906141504 | 29 | 118 | 3.2 | 8.0 | 0.00 | 0.00 | 0.00 | 72 | 1015.2 |
| 20260906140004 | 28 | 123 | 0.0 | 4.8 | 0.00 | 0.00 | 0.00 | 76 | 1015.1 |
| 20260906135504 | 28 | 123 | 1.6 | 4.8 | 0.00 | 0.00 | 0.00 | 76 | 1015.0 |
| 20260906135004 | 28 | 94 | 1.6 | 4.8 | 0.00 | 0.00 | 0.00 | 77 | 1015.0 |
| 20260906134504 | 27 | 93 | 3.2 | 8.0 | 0.00 | 0.00 | 0.00 | 77 | 1015.0 |
| 20260906134005 | 27 | 78 | 1.6 | 9.7 | 0.00 | 0.00 | 0.00 | 79 | 1015.0 |
| 20260906133004 | 27 | 107 | 0.0 | 4.8 | 0.00 | 0.00 | 0.00 | 81 | 1015.0 |
| 20260906132505 | 27 | 107 | 0.0 | 0.0 | 0.00 | 0.00 | 0.00 | 82 | 1015.0 |
| 20260906132005 | 26 | 107 | 0.0 | 0.0 | 0.00 | 0.00 | 0.00 | 83 | 1015.1 |
| 20260906131503 | 26 | 179 | 0.0 | 0.0 | 0.00 | 0.00 | 0.00 | 83 | 1015.0 |
| 20260906131004 | 26 | 179 | 0.0 | 0.0 | 0.00 | 0.00 | 0.00 | 84 | 1015.0 |
| 20260906130504 | 26 | 179 | 0.0 | 0.0 | 0.00 | 0.00 | 0.00 | 85 | 1014.9 |
| 20260906130004 | 26 | 179 | 0.0 | 0.0 | 0.00 | 0.00 | 0.00 | 86 | 1014.9 |
| 20260906125505 | 25 | 179 | 0.0 | 0.0 | 0.00 | 0.00 | 0.00 | 86 | 1014.8 |
| 20260906124504 | 25 | 179 | 0.0 | 0.0 | 0.00 | 0.00 | 0.00 | 87 | 1014.8 |
| 20260906124004 | 25 | 179 | 0.0 | 0.0 | 0.00 | 0.00 | 0.00 | 87 | 1014.8 |
| 20260906123504 | 25 | 179 | 0.0 | 0.0 | 0.00 | 0.00 | 0.00 | 87 | 1014.7 |
| 20260906123005 | 25 | 179 | 0.0 | 0.0 | 0.00 | 0.00 | 0.00 | 87 | 1014.7 |
| 20260906122504 | 25 | 179 | 0.0 | 0.0 | 0.00 | 0.00 | 0.00 | 87 | 1014.7 |
| 20260906122004 | 25 | 179 | 0.0 | 0.0 | 0.00 | 0.00 | 0.00 | 87 | 1014.6 |
| 20260906121504 | 25 | 179 | 0.0 | 0.0 | 0.00 | 0.00 | 0.00 | 87 | 1014.6 |
| 20260906121004 | 25 | 179 | 0.0 | 0.0 | 0.00 | 0.00 | 0.00 | 87 | 1014.5 |
| 20260906120504 | 25 | 179 | 0.0 | 0.0 | 0.00 | 0.00 | 0.00 | 87 | 1014.5 |
| 20260906120004 | 25 | 179 | 0.0 | 0.0 | 0.00 | 0.00 | 0.00 | 87 | 1014.5 |
| 20260906115504 | 25 | 179 | 0.0 | 0.0 | 0.00 | 0.00 | 0.00 | 86 | 1014.6 |
| 20260906115003 | 25 | 179 | 0.0 | 0.0 | 0.00 | 0.00 | 0.00 | 86 | 1014.4 |
| 20260906114504 | 25 | 179 | 0.0 | 0.0 | 0.00 | 0.00 | 0.00 | 86 | 1014.3 |
| 20260906114004 | 25 | 179 | 0.0 | 0.0 | 0.00 | 0.00 | 0.00 | 86 | 1014.3 |
| 20260906113504 | 25 | 179 | 0.0 | 0.0 | 0.00 | 0.00 | 0.00 | 86 | 1014.4 |
| 20260906113004 | 25 | 179 | 0.0 | 0.0 | 0.00 | 0.00 | 0.00 | 86 | 1014.2 |
| 20260906112004 | 25 | 179 | 0.0 | 0.0 | 0.00 | 0.00 | 0.00 | 86 | 1014.2 |
| 20260906111504 | 25 | 179 | 0.0 | 0.0 | 0.00 | 0.00 | 0.00 | 86 | 1014.2 |
| 20260906111004 | 25 | 179 | 0.0 | 0.0 | 0.00 | 0.00 | 0.00 | 86 | 1014.1 |
| 20260906110503 | 25 | 179 | 0.0 | 0.0 | 0.00 | 0.00 | 0.00 | 86 | 1014.1 |
| 20260906110004 | 25 | 179 | 0.0 | 0.0 | 0.00 | 0.00 | 0.00 | 85 | 1014.1 |
| 20260906105503 | 25 | 179 | 0.0 | 0.0 | 0.00 | 0.00 | 0.00 | 85 | 1013.9 |
| 20260906105004 | 25 | 179 | 0.0 | 0.0 | 0.00 | 0.00 | 0.00 | 85 | 1013.9 |
| 20260906104504 | 25 | 179 | 0.0 | 0.0 | 0.00 | 0.00 | 0.00 | 85 | 1013.9 |
| 20260906104003 | 25 | 179 | 0.0 | 0.0 | 0.00 | 0.00 | 0.00 | 85 | 1013.9 |
| 20260906103504 | 25 | 179 | 0.0 | 0.0 | 0.00 | 0.00 | 0.00 | 85 | 1014.0 |
| 20260906103004 | 25 | 179 | 0.0 | 0.0 | 0.00 | 0.00 | 0.00 | 85 | 1013.8 |
| 20260906102503 | 25 | 179 | 0.0 | 0.0 | 0.00 | 0.00 | 0.00 | 85 | 1013.8 |
| 20260906102003 | 25 | 179 | 0.0 | 0.0 | 0.00 | 0.00 | 0.00 | 84 | 1013.9 |
| 20260906101504 | 25 | 179 | 0.0 | 0.0 | 0.00 | 0.00 | 0.00 | 84 | 1013.8 |
| 20260906101003 | 25 | 179 | 0.0 | 0.0 | 0.00 | 0.00 | 0.00 | 84 | 1013.8 |
| 20260906100503 | 25 | 179 | 0.0 | 0.0 | 0.00 | 0.00 | 0.00 | 84 | 1013.7 |
| 20260906100004 | 25 | 179 | 0.0 | 0.0 | 0.00 | 0.00 | 0.00 | 84 | 1013.7 |
| 20260906095504 | 25 | 179 | 0.0 | 0.0 | 0.00 | 0.00 | 0.00 | 83 | 1013.7 |
| 20260906095003 | 25 | 179 | 0.0 | 0.0 | 0.00 | 0.00 | 0.00 | 84 | 1013.7 |
| 20260906094504 | 25 | 179 | 0.0 | 0.0 | 0.00 | 0.00 | 0.00 | 83 | 1013.5 |
| 20260906094004 | 26 | 179 | 0.0 | 0.0 | 0.00 | 0.00 | 0.00 | 83 | 1013.5 |
| 20260906093504 | 26 | 179 | 0.0 | 0.0 | 0.00 | 0.00 | 0.00 | 83 | 1013.5 |
| 20260906093004 | 26 | 179 | 0.0 | 0.0 | 0.00 | 0.00 | 0.00 | 82 | 1013.5 |
| 20260906092007 | 26 | 179 | 0.0 | 0.0 | 0.00 | 0.00 | 0.00 | 81 | 1013.3 |
| 20260906091506 | 26 | 179 | 0.0 | 0.0 | 0.00 | 0.00 | 0.00 | 81 | 1013.3 |
| 20260906091007 | 26 | 179 | 0.0 | 0.0 | 0.00 | 0.00 | 0.00 | 81 | 1013.2 |
| 20260906090507 | 26 | 179 | 0.0 | 0.0 | 0.00 | 0.00 | 0.00 | 80 | 1013.3 |
| 20260906090007 | 26 | 179 | 0.0 | 0.0 | 0.00 | 0.00 | 0.00 | 79 | 1013.3 |
| 20260906085507 | 26 | 179 | 1.6 | 3.2 | 0.00 | 0.00 | 0.00 | 79 | 1013.1 |
| 20260906085007 | 26 | 179 | 1.6 | 4.8 | 0.00 | 0.00 | 0.00 | 79 | 1013.2 |
| 20260906084506 | 26 | 179 | 1.6 | 8.0 | 0.00 | 0.00 | 0.00 | 79 | 1013.1 |
| 20260906084006 | 26 | 179 | 3.2 | 8.0 | 0.00 | 0.00 | 0.00 | 79 | 1013.2 |
| 20260906083506 | 27 | 155 | 3.2 | 8.0 | 0.00 | 0.00 | 0.00 | 78 | 1013.1 |
| 20260906083006 | 27 | 163 | 0.0 | 8.0 | 0.00 | 0.00 | 0.00 | 78 | 1013.2 |
| 20260906082507 | 27 | 163 | 4.8 | 9.7 | 0.00 | 0.00 | 0.00 | 78 | 1013.2 |
| 20260906082007 | 27 | 190 | 0.0 | 3.2 | 0.00 | 0.00 | 0.00 | 77 | 1013.0 |
| 20260906081506 | 27 | 190 | 3.2 | 9.7 | 0.00 | 0.00 | 0.00 | 77 | 1013.1 |
| 20260906081007 | 27 | 173 | 0.0 | 4.8 | 0.00 | 0.00 | 0.00 | 77 | 1013.1 |
| 20260906080507 | 27 | 169 | 0.0 | 0.0 | 0.00 | 0.00 | 0.00 | 77 | 1013.3 |
| 20260906075506 | 27 | 181 | 3.2 | 4.8 | 0.00 | 0.00 | 0.00 | 77 | 1013.4 |
| 20260906075006 | 27 | 174 | 3.2 | 4.8 | 0.00 | 0.00 | 0.00 | 77 | 1013.4 |
| 20260906074506 | 27 | 181 | 1.6 | 8.0 | 0.00 | 0.00 | 0.00 | 76 | 1013.3 |
| 20260906074006 | 27 | 181 | 1.6 | 8.0 | 0.00 | 0.00 | 0.00 | 76 | 1013.3 |
| 20260906073506 | 27 | 182 | 1.6 | 8.0 | 0.00 | 0.00 | 0.00 | 76 | 1013.1 |
| 20260906072507 | 27 | 261 | 1.6 | 4.8 | 0.00 | 0.00 | 0.00 | 76 | 1013.2 |
| 20260906072006 | 27 | 160 | 0.0 | 0.0 | 0.00 | 0.00 | 0.00 | 76 | 1013.3 |
| 20260906071506 | 27 | 160 | 0.0 | 0.0 | 0.00 | 0.00 | 0.00 | 75 | 1013.4 |
| 20260906071007 | 27 | 160 | 0.0 | 3.2 | 0.00 | 0.00 | 0.00 | 75 | 1013.5 |
| 20260906070507 | 27 | 160 | 3.2 | 8.0 | 0.00 | 0.00 | 0.00 | 75 | 1013.5 |
| 20260906070006 | 27 | 160 | 3.2 | 9.7 | 0.00 | 0.00 | 0.00 | 74 | 1013.5 |
| 20260906065507 | 27 | 192 | 4.8 | 12.9 | 0.00 | 0.00 | 0.00 | 74 | 1013.6 |
| 20260906065006 | 27 | 175 | 4.8 | 11.3 | 0.00 | 0.00 | 0.00 | 73 | 1013.6 |
| 20260906064507 | 27 | 173 | 6.4 | 11.3 | 0.00 | 0.00 | 0.00 | 73 | 1013.6 |
| 20260906064007 | 28 | 174 | 3.2 | 4.8 | 0.00 | 0.00 | 0.00 | 72 | 1013.6 |
| 20260906063507 | 28 | 172 | 1.6 | 9.7 | 0.00 | 0.00 | 0.00 | 72 | 1013.5 |
| 20260906063007 | 28 | 181 | 6.4 | 11.3 | 0.00 | 0.00 | 0.00 | 71 | 1013.5 |
| 20260906062507 | 28 | 163 | 1.6 | 11.3 | 0.00 | 0.00 | 0.00 | 71 | 1013.5 |
| 20260906062007 | 28 | 161 | 8.0 | 11.3 | 0.00 | 0.00 | 0.00 | 71 | 1013.6 |
| 20260906061506 | 28 | 172 | 4.8 | 11.3 | 0.00 | 0.00 | 0.00 | 70 | 1013.7 |
| 20260906061006 | 28 | 185 | 3.2 | 9.7 | 0.00 | 0.00 | 0.00 | 69 | 1013.6 |
| 20260906060507 | 28 | 178 | 3.2 | 8.0 | 0.00 | 0.00 | 0.00 | 69 | 1013.7 |
| 20260906060007 | 28 | 175 | 1.6 | 4.8 | 0.00 | 0.00 | 0.00 | 69 | 1013.6 |
| 20260906055506 | 28 | 175 | 3.2 | 8.0 | 0.00 | 0.00 | 0.00 | 68 | 1013.5 |
| 20260906055007 | 28 | 179 | 1.6 | 9.7 | 0.00 | 0.00 | 0.00 | 68 | 1013.6 |
| 20260906054507 | 28 | 177 | 1.6 | 8.0 | 0.00 | 0.00 | 0.00 | 68 | 1013.7 |
| 20260906053506 | 28 | 156 | 3.2 | 9.7 | 0.00 | 0.00 | 0.00 | 67 | 1013.5 |
| 20260906053006 | 28 | 186 | 1.6 | 9.7 | 0.00 | 0.00 | 0.00 | 67 | 1013.5 |
| 20260906052506 | 28 | 159 | 3.2 | 9.7 | 0.00 | 0.00 | 0.00 | 67 | 1013.4 |
| 20260906052006 | 28 | 184 | 1.6 | 4.8 | 0.00 | 0.00 | 0.00 | 67 | 1013.5 |
| 20260906051506 | 28 | 184 | 1.6 | 4.8 | 0.00 | 0.00 | 0.00 | 66 | 1013.4 |
| 20260906051007 | 29 | 183 | 4.8 | 9.7 | 0.00 | 0.00 | 0.00 | 66 | 1013.5 |
| 20260906050506 | 29 | 191 | 3.2 | 9.7 | 0.00 | 0.00 | 0.00 | 66 | 1013.5 |
| 20260906050006 | 29 | 190 | 3.2 | 11.3 | 0.00 | 0.00 | 0.00 | 66 | 1013.5 |
| 20260906045506 | 29 | 186 | 1.6 | 9.7 | 0.00 | 0.00 | 0.00 | 66 | 1013.5 |
| 20260906045006 | 29 | 153 | 4.8 | 12.9 | 0.00 | 0.00 | 0.00 | 66 | 1013.5 |
| 20260906044506 | 29 | 167 | 8.0 | 19.3 | 0.00 | 0.00 | 0.00 | 66 | 1013.6 |
| 20260906044006 | 29 | 165 | 4.8 | 16.1 | 0.00 | 0.00 | 0.00 | 66 | 1013.5 |
| 20260906043506 | 29 | 157 | 4.8 | 14.5 | 0.00 | 0.00 | 0.00 | 66 | 1013.6 |
| 20260906042506 | 29 | 166 | 8.0 | 14.5 | 0.00 | 0.00 | 0.00 | 65 | 1013.5 |
| 20260906042006 | 29 | 174 | 8.0 | 14.5 | 0.00 | 0.00 | 0.00 | 65 | 1013.5 |
| 20260906041506 | 29 | 155 | 12.9 | 20.9 | 0.00 | 0.00 | 0.00 | 65 | 1013.7 |
| 20260906041006 | 30 | 165 | 9.7 | 19.3 | 0.00 | 0.00 | 0.00 | 65 | 1013.5 |
| 20260906040506 | 30 | 173 | 6.4 | 16.1 | 0.00 | 0.00 | 0.00 | 65 | 1013.5 |
| 20260906035006 | 30 | 183 | 8.0 | 12.9 | 0.00 | 0.00 | 0.00 | 64 | 1013.5 |
| 20260906034506 | 30 | 168 | 4.8 | 16.1 | 0.00 | 0.00 | 0.00 | 64 | 1013.5 |
| 20260906033006 | 30 | 175 | 9.7 | 19.3 | 0.00 | 0.00 | 0.00 | 63 | 1013.5 |
| 20260906032506 | 30 | 159 | 9.7 | 20.9 | 0.00 | 0.00 | 0.00 | 63 | 1013.4 |
| 20260906032006 | 30 | 168 | 9.7 | 14.5 | 0.00 | 0.00 | 0.00 | 63 | 1013.5 |
| 20260906031505 | 30 | 151 | 8.0 | 16.1 | 0.00 | 0.00 | 0.00 | 62 | 1013.6 |
| 20260906031006 | 30 | 178 | 6.4 | 20.9 | 0.00 | 0.00 | 0.00 | 62 | 1013.6 |
| 20260906030506 | 30 | 172 | 9.7 | 19.3 | 0.00 | 0.00 | 0.00 | 61 | 1013.6 |
| 20260906030006 | 30 | 182 | 6.4 | 11.3 | 0.00 | 0.00 | 0.00 | 61 | 1013.5 |
| 20260906025505 | 30 | 164 | 3.2 | 9.7 | 0.00 | 0.00 | 0.00 | 61 | 1013.5 |
| 20260906025006 | 30 | 157 | 3.2 | 9.7 | 0.00 | 0.00 | 0.00 | 61 | 1013.4 |
| 20260906024506 | 30 | 157 | 3.2 | 12.9 | 0.00 | 0.00 | 0.00 | 61 | 1013.4 |
| 20260906023505 | 30 | 169 | 6.4 | 16.1 | 0.00 | 0.00 | 0.00 | 60 | 1013.1 |
| 20260906022506 | 30 | 144 | 4.8 | 12.9 | 0.00 | 0.00 | 0.00 | 60 | 1013.0 |
| 20260906022006 | 30 | 157 | 3.2 | 12.9 | 0.00 | 0.00 | 0.00 | 60 | 1013.0 |
| 20260906021506 | 30 | 169 | 3.2 | 9.7 | 0.00 | 0.00 | 0.00 | 60 | 1012.9 |
| 20260906021006 | 31 | 163 | 3.2 | 14.5 | 0.00 | 0.00 | 0.00 | 59 | 1012.8 |
| 20260906020506 | 31 | 183 | 6.4 | 20.9 | 0.00 | 0.00 | 0.00 | 59 | 1012.8 |
| 20260906020006 | 31 | 144 | 9.7 | 19.3 | 0.00 | 0.00 | 0.00 | 59 | 1012.7 |
| 20260906015506 | 31 | 137 | 11.3 | 20.9 | 0.00 | 0.00 | 0.00 | 58 | 1012.7 |
| 20260906015006 | 31 | 164 | 14.5 | 25.7 | 0.00 | 0.00 | 0.00 | 58 | 1012.7 |
| 20260906014506 | 31 | 159 | 14.5 | 20.9 | 0.00 | 0.00 | 0.00 | 57 | 1012.6 |
| 20260906013506 | 31 | 159 | 11.3 | 22.5 | 0.00 | 0.00 | 0.00 | 55 | 1012.4 |
| 20260906013006 | 32 | 171 | 8.0 | 25.7 | 0.00 | 0.00 | 0.00 | 55 | 1012.4 |
| 20260906012006 | 32 | 158 | 12.9 | 25.7 | 0.00 | 0.00 | 0.00 | 53 | 1012.0 |
| 20260906011506 | 32 | 150 | 14.5 | 22.5 | 0.00 | 0.00 | 0.00 | 52 | 1012.0 |
| 20260906011006 | 33 | 160 | 14.5 | 22.5 | 0.00 | 0.00 | 0.00 | 51 | 1012.0 |
| 20260906010505 | 33 | 159 | 9.7 | 25.7 | 0.00 | 0.00 | 0.00 | 51 | 1011.9 |
| 20260906005507 | 33 | 162 | 12.9 | 24.1 | 0.00 | 0.00 | 0.00 | 49 | 1011.8 |
| 20260906005006 | 34 | 161 | 16.1 | 29.0 | 0.00 | 0.00 | 0.00 | 48 | 1011.7 |
| 20260906004506 | 35 | 139 | 6.4 | 16.1 | 0.00 | 0.00 | 0.00 | 45 | 1011.6 |
| 20260906004006 | 35 | 173 | 8.0 | 14.5 | 0.00 | 0.00 | 0.00 | 45 | 1011.6 |
| 20260906003506 | 35 | 141 | 6.4 | 14.5 | 0.00 | 0.00 | 0.00 | 44 | 1011.6 |
| 20260906002506 | 35 | 146 | 4.8 | 11.3 | 0.00 | 0.00 | 0.00 | 43 | 1011.6 |
| 20260906002005 | 35 | 139 | 8.0 | 14.5 | 0.00 | 0.00 | 0.00 | 44 | 1011.6 |
| 20260906001506 | 35 | 156 | 8.0 | 16.1 | 0.00 | 0.00 | 0.00 | 43 | 1011.7 |
| 20260906001006 | 35 | 164 | 6.4 | 11.3 | 0.00 | 0.00 | 0.00 | 43 | 1011.7 |
| 20260906000506 | 35 | 160 | 6.4 | 16.1 | 0.00 | 0.00 | 0.00 | 42 | 1011.7 |
| 20260905235505 | 35 | 138 | 6.4 | 16.1 | 0.00 | 0.00 | 0.00 | 42 | 1011.5 |
| 20260905235006 | 35 | 168 | 8.0 | 14.5 | 0.00 | 0.00 | 0.00 | 41 | 1011.4 |
| 20260905234505 | 35 | 180 | 8.0 | 12.9 | 0.00 | 0.00 | 0.00 | 41 | 1011.3 |
| 20260905234005 | 36 | 155 | 6.4 | 12.9 | 0.00 | 0.00 | 0.00 | 41 | 1011.4 |
| 20260905233505 | 36 | 148 | 6.4 | 16.1 | 0.00 | 0.00 | 0.00 | 41 | 1011.4 |
| 20260905233006 | 36 | 134 | 8.0 | 19.3 | 0.00 | 0.00 | 0.00 | 41 | 1011.4 |
| 20260905232505 | 36 | 120 | 4.8 | 12.9 | 0.00 | 0.00 | 0.00 | 40 | 1011.4 |
| 20260905231506 | 36 | 66 | 8.0 | 14.5 | 0.00 | 0.00 | 0.00 | 40 | 1011.4 |
| 20260905231006 | 36 | 119 | 3.2 | 14.5 | 0.00 | 0.00 | 0.00 | 40 | 1011.5 |
| 20260905230506 | 36 | 117 | 8.0 | 16.1 | 0.00 | 0.00 | 0.00 | 40 | 1011.4 |
| 20260905230005 | 36 | 71 | 8.0 | 16.1 | 0.00 | 0.00 | 0.00 | 40 | 1011.4 |